STARLINK-33792, 63506

Orbit data source: Space-Track

STARLINK-33792, 63506 is a payload satellite owned by SpaceX/Seattle (US) in LEO that was launched on Mon, 07 Apr 2025 UTC via an FALCON 9 launch vehicle from the Air Force Western Test Range (AFWTR). Payload-class satellites include a variety of spacecraft equipped with specific instruments for various scientific and technological missions. These include communications satellites like Starlink; space stations such as the ISS; scientific satellites like the Hubble; Earth observation satellites from companies like Planet Labs, Umbra, and HawkEye 360; GPS; miniature CubeSats for education and research; and military/defense satellites.

Loading next visibility...
Identifier
63506, 2025-071P
Orbit
LEO
Country
Flag of USUS
Related business
Manufacturer
SpaceX/Seattle
Mission
Operational Commercial Communications
Bus & Motor
STARLINK V2MO, Unknown motor
Mass
575 kg wet, ~530 kg dry
Launch date (UTC)
2025-04-07 (7 months ago)
Launch vehicle
FALCON 9
Launch site
Air Force Western Test Range (AFWTR)
Object type
Payload
Rocket body
Debris
Shape & HBR
Box + 2 Pan, 17.7 m
Radar Cross Section
36.964 m², Large (>1 m²)

Expand to show TLE details & history
Last TLE update: 23 hours ago

TLE from 23 hours ago
0 STARLINK-33792
1 63506U 25071P   25308.87908121  .00022400  00000-0  76630-3 0  9992
2 63506  53.1616 359.4548 0001497  92.8479 267.2693 15.30192998 33617
Epoch: 2025-11-04T21:05Z
TLE epoch observation values (Epoch: 2025-11-04T21:05:52.616Z)
Latitude
-0.00004°
Longitude
-1.37423°
Altitude
476.185 km
Speed
7.629 km/s
True Right ascension
23h 57m 49s
True Declination
0° 00' 00"
Sunlit
Object was in full shadow at epoch
Visualization orbit readout
Latitude
Unknown
Longitude
Unknown
Altitude
Unknown
Speed
Unknown
Apparent Right ascension
Unknown
Apparent Declination
Unknown
Sunlit
N/A
Visualization observer readout
Local Sidereal Time
15:37:57
Azimuth
Unknown
Elevation
Unknown
Doppler factor
Unknown
Orbital elements
Apogee altitude
476.518 km
Perigee altitude
474.466 km
Semi-major axis
6,853.629 km
Eccentricity
0.00015
Inclination
53.1616°
RAAN
359.4548°
Arg. of periapsis
92.8479°
True anomaly
267.25217°
Mean anomaly
267.2693°
Eccentric anomaly
267.26073°
Mean motion
3.82527 °/min
Orbital period
94.11 mins
BSTAR
0.0007663
Loading maneuver chart data...
Computing Atmospheric mass density...
Loading historical data...
Loading historical data...
Loading historical data...
Loading historical data...
Loading historical data...
Loading historical data...
Loading historical data...

Documentation

Showing up to 5 results
|